Location: Bydgoszcz
(53.1640°N, 17.9142°E)
Time: 11:16:52
(UTC+02:00)

PCSat - Pass Details

Date: 24 April 2024
Orbit: 783 x 792 km, 67.1° (Epoch: 24 May)

Event Time Altitude Azimuth Distance (km) Brightness Sun altitude
Rises 01:52:25 0° 316° (NW) 3,299 13.2 -22.4°
Reaches altitude 10° 01:55:10 10° 328° (NNW) 2,369 12.5 -22.3°
Maximum altitude 01:59:53 29° 28° (NNE) 1,424 11.6 -22.0°
Drops below altitude 10° 02:04:35 10° 88° (E) 2,364 12.3 -21.8°
Sets 02:07:19 0° 100° (E) 3,291 12.9 -21.6°
